Mansfield, OH

1:31 AM EST on January 17, 2018 (GMT -0500)
Mansfield Lahm Regional

Weather History for KMFD - January, 2014

Change the Weather History Date:

Monday, January 27, 2014

  Actual Average Record
Temperature  
Mean Temperature 17 °F 26 °F  
Max Temperature 40 °F 33 °F 59 °F (1999)
Min Temperature -7 °F 18 °F -12 °F (1946)
Degree Days  
Heating Degree Days 48 39  
Month to date heating degree days 1213 1069  
Since 1 July heating degree days 3612 3446  
Cooling Degree Days 0 0  
Month to date cooling degree days 0 0  
Year to date cooling degree days 0 0  
Moisture  
Dew Point 4 °F    
Average Humidity 70    
Maximum Humidity 80    
Minimum Humidity 59    
Precipitation  
Precipitation 0.02 in 0.08 in 0.70 in (1949)
Month to date precipitation 2.00 2.53  
Year to date precipitation 2.00 2.53  
Snow  
Snow 0.20 in 0.40 in - ()
Month to date snowfall 19.4 11.6  
Since 1 July snowfall 36.3 24.8  
Snow Depth 2.00 in    
Sea Level Pressure  
Sea Level Pressure 29.91 in    
Wind  
Wind Speed 14 mph (WSW)    
Max Wind Speed 35 mph    
Max Gust Speed 52 mph    
Visibility 7 miles    
Events Snow    
T = Trace of Precipitation, MM = Missing Value Source: NWS Daily Summary

Daily Weather History Graph

Daily Weather History Graph

Search for Another Location

Airport or City:

Trip Planner

Search our weather history database for the weather conditions in past years. The results will help you decide how hot, cold, wet, or windy it might be!

Date:

Astronomy

Jan. 27, 2014 Rise Set
Actual Time 7:44 AM EST 5:41 PM EST
Civil Twilight 7:15 AM EST 6:10 PM EST
Nautical Twilight 6:42 AM EST 6:43 PM EST
Astronomical Twilight 6:09 AM EST 7:16 PM EST
Moon 4:25 AM EST (1/27) 2:25 PM EST (1/27)
Length of Visible Light 10h 55m
Length of Day
9h 56m
Waning Crescent, 15% of the Moon is Illuminated
Jan 27
Waning Crescent
Jan 30
New
Feb 6
First Quarter
Feb 14
Full
Feb 22
Last Quarter

Hourly Weather History & Observations

Time (EST) Temp. Windchill Dew Point Humidity Pressure Visibility Wind Dir Wind Speed Gust Speed Precip Events Conditions
12:52 AM 39.9 °F 29.0 °F 26.1 °F 58% 29.44 in 10.0 mi SSW 26.5 mph 42.6 mph N/A   Overcast
1:38 AM 35.6 °F 24.5 °F 28.4 °F 75% 29.45 in 2.5 mi West 20.7 mph 42.6 mph 0.00 in Snow Light Snow
1:45 AM 30.2 °F 17.8 °F 28.4 °F 93% 29.48 in 0.8 mi West 19.6 mph 35.7 mph 0.00 in Snow Light Snow
1:52 AM 30.0 °F 18.3 °F 27.0 °F 88% 29.53 in 0.8 mi West 17.3 mph 31.1 mph 0.01 in Snow Light Snow
2:04 AM 28.4 °F 14.4 °F 26.6 °F 93% 29.50 in 1.0 mi West 23.0 mph 35.7 mph 0.00 in Snow Light Snow
2:13 AM 26.6 °F 10.8 °F 24.8 °F 93% 29.51 in 0.8 mi West 27.6 mph 40.3 mph 0.01 in Snow Light Snow
2:26 AM 24.8 °F 10.3 °F 21.2 °F 86% 29.53 in 0.8 mi West 20.7 mph 35.7 mph 0.01 in Snow Light Snow
2:40 AM 24.8 °F 9.0 °F 21.2 °F 86% 29.54 in 1.2 mi West 25.3 mph 33.4 mph 0.01 in Snow Light Snow
2:52 AM 24.1 °F 10.1 °F 18.0 °F 77% 29.61 in 1.8 mi West 18.4 mph 32.2 mph 0.01 in   Haze
3:00 AM 23.0 °F 7.6 °F 17.6 °F 80% 29.57 in 2.0 mi West 21.9 mph 36.8 mph N/A   Haze
3:16 AM 23.0 °F 9.6 °F 17.6 °F 80% 29.57 in 1.8 mi West 16.1 mph 28.8 mph 0.00 in Snow Light Snow
3:25 AM 21.2 °F 6.4 °F 17.6 °F 86% 29.57 in 2.0 mi West 18.4 mph 33.4 mph 0.00 in Snow Light Snow
3:31 AM 21.2 °F 6.0 °F 15.8 °F 80% 29.59 in 3.0 mi West 19.6 mph 33.4 mph 0.00 in   Haze
3:52 AM 21.0 °F 5.4 °F 14.0 °F 74% 29.66 in 2.5 mi West 20.7 mph 32.2 mph 0.00 in   Haze
4:06 AM 19.4 °F 1.1 °F 8.6 °F 63% 29.63 in 1.5 mi West 27.6 mph 41.4 mph N/A   Haze
4:31 AM 17.6 °F 0.5 °F 5.0 °F 58% 29.67 in 3.0 mi West 21.9 mph 40.3 mph 0.00 in   Haze
4:52 AM 16.0 °F -2.1 °F 5.0 °F 62% 29.75 in 4.0 mi West 23.0 mph 33.4 mph 0.00 in   Haze
5:03 AM 14.0 °F -4.7 °F 5.0 °F 67% 29.71 in 2.5 mi West 23.0 mph 35.7 mph 0.00 in Snow Light Snow
5:10 AM 14.0 °F -4.7 °F 3.2 °F 62% 29.72 in 4.0 mi West 23.0 mph 33.4 mph 0.00 in   Haze
5:34 AM 12.2 °F -7.1 °F 5.0 °F 73% 29.75 in 3.0 mi West 23.0 mph 35.7 mph 0.00 in   Haze
5:52 AM 12.0 °F -5.1 °F 3.9 °F 70% 29.83 in 5.0 mi West 17.3 mph 29.9 mph 0.00 in   Haze
6:52 AM 10.0 °F -7.1 °F 1.9 °F 70% 29.89 in 6.0 mi West 16.1 mph 27.6 mph N/A   Haze
7:52 AM 7.0 °F -9.1 °F 1.0 °F 77% 29.96 in 6.0 mi West 12.7 mph 21.9 mph N/A   Haze
8:45 AM 6.8 °F -10.7 °F -0.4 °F 72% 29.95 in 10.0 mi West 15.0 mph 24.2 mph N/A   Mostly Cloudy
8:52 AM 6.1 °F -10.9 °F -0.0 °F 76% 30.02 in 10.0 mi WSW 13.8 mph 24.2 mph N/A   Mostly Cloudy
9:14 AM 5.0 °F -10.8 °F -0.4 °F 78% 29.98 in 10.0 mi WSW 11.5 mph 23.0 mph N/A   Overcast
9:36 AM 5.0 °F -12.3 °F -0.4 °F 78% 29.99 in 10.0 mi West 13.8 mph 26.5 mph N/A   Mostly Cloudy
9:52 AM 5.0 °F -11.6 °F -2.0 °F 73% 30.06 in 10.0 mi WSW 12.7 mph 21.9 mph N/A   Scattered Clouds
10:52 AM 6.1 °F -11.6 °F -2.9 °F 67% 30.10 in 10.0 mi WSW 15.0 mph 20.7 mph N/A   Partly Cloudy
11:52 AM 7.0 °F -9.1 °F -2.0 °F 67% 30.11 in 10.0 mi WSW 12.7 mph 17.3 mph N/A   Mostly Cloudy
12:03 PM 6.8 °F -8.6 °F -2.2 °F 67% 30.05 in 10.0 mi WSW 11.5 mph 18.4 mph N/A   Scattered Clouds
12:10 PM 6.8 °F -10.7 °F -2.2 °F 67% 30.05 in 10.0 mi West 15.0 mph 20.7 mph N/A   Mostly Cloudy
12:32 PM 6.8 °F -10.7 °F -2.2 °F 67% 30.05 in 10.0 mi WSW 15.0 mph 23.0 mph N/A   Partly Cloudy
12:52 PM 8.1 °F -5.3 °F -2.0 °F 64% 30.10 in 10.0 mi West 9.2 mph - N/A   Partly Cloudy
1:38 PM 6.8 °F -10.7 °F -2.2 °F 67% 30.05 in 10.0 mi WSW 15.0 mph 23.0 mph N/A   Mostly Cloudy
1:52 PM 8.1 °F -7.7 °F -2.0 °F 64% 30.11 in 10.0 mi West 12.7 mph 19.6 mph N/A   Mostly Cloudy
2:52 PM 7.0 °F -9.1 °F -2.9 °F 64% 30.12 in 10.0 mi WSW 12.7 mph 19.6 mph N/A   Scattered Clouds
3:03 PM 6.8 °F -10.0 °F -2.2 °F 67% 30.05 in 10.0 mi WSW 13.8 mph 20.7 mph N/A   Mostly Cloudy
3:52 PM 5.0 °F -13.6 °F -4.0 °F 66% 30.15 in 10.0 mi WSW 16.1 mph 21.9 mph N/A   Mostly Cloudy
4:52 PM 3.0 °F -15.5 °F -5.1 °F 69% 30.18 in 10.0 mi WSW 15.0 mph 24.2 mph N/A   Overcast
5:39 PM 1.4 °F -14.5 °F -5.8 °F 72% 30.11 in 10.0 mi WSW 10.4 mph 21.9 mph N/A   Scattered Clouds
5:49 PM 1.4 °F -15.3 °F -7.6 °F 66% 30.11 in 10.0 mi WSW 11.5 mph 20.7 mph N/A   Mostly Cloudy
5:52 PM 1.9 °F -14.7 °F -7.1 °F 66% 30.20 in 10.0 mi WSW 11.5 mph 20.7 mph N/A   Mostly Cloudy
6:12 PM 1.4 °F -14.5 °F -7.6 °F 66% 30.13 in 10.0 mi WSW 10.4 mph - N/A   Scattered Clouds
6:52 PM -0.0 °F -16.3 °F -9.0 °F 66% 30.25 in 10.0 mi WSW 10.4 mph - N/A   Mostly Cloudy
7:21 PM -0.4 °F -16.7 °F -9.4 °F 66% 30.18 in 10.0 mi West 10.4 mph 20.7 mph N/A   Scattered Clouds
7:52 PM -2.0 °F -18.7 °F -11.9 °F 63% 30.29 in 10.0 mi West 10.4 mph 18.4 mph N/A   Clear
8:52 PM -2.9 °F -19.8 °F -11.0 °F 68% 30.31 in 10.0 mi WSW 10.4 mph 17.3 mph N/A   Clear
9:52 PM -5.1 °F -20.4 °F -11.9 °F 72% 30.34 in 10.0 mi WSW 8.1 mph - N/A   Clear
10:52 PM -6.0 °F -20.1 °F -13.0 °F 72% 30.37 in 10.0 mi WSW 6.9 mph - N/A   Clear
11:52 PM -7.1 °F -22.8 °F -13.0 °F 75% 30.38 in 10.0 mi WSW 8.1 mph - N/A   Clear